Skip Page Navigation
NASA JPL Caltech
NASA Logo - Jet Propulsion Laboratory + View the NASA Portal
+ Center for Near-Earth Object Studies
JPL Home Earth Solar System Stars & Galaxies Technology
JPL Solar System Dynamics
BODIES ORBITS EPHEMERIDES TOOLS PHYSICAL DATA DISCOVERY FAQ SITE MAP
JPL Small-Body Database Browser
Search: [ help ]  
175406 (2006 OL14)
Classification: Main-belt Asteroid          SPK-ID: 2175406
Ephemeris | Orbit Diagram | Orbital Elements | Mission Design | Physical Parameters | Discovery Circumstances | Close-Approach Data ]

[ show orbit diagram ]
Orbital Elements at Epoch 2459396.5 (2021-Jul-01.0) TDB
Reference: JPL 16 (heliocentric ecliptic J2000)
 Element Value Uncertainty (1-sigma)   Units 
e .1690942641651574 3.6452e-08  
a 2.274197282841977 9.7925e-09 au
q 1.889643566733412 8.2749e-08 au
i 3.024898143505912 4.2797e-06 deg
node 116.4272748620701 9.4475e-05 deg
peri 177.6645499498214 9.5611e-05 deg
M 141.7966854332402 1.5511e-05 deg
tp 2458903.094246169108
(2020-Feb-23.59424617)
5.3063e-05 TDB
period 1252.681406736758
3.43
8.0909e-06
2.215e-08
d
yr
n .287383526301234 1.8562e-09 deg/d
Q 2.658750998950541 1.1448e-08 au
  Orbit Determination Parameters
   # obs. used (total)      285  
   data-arc span      8365 days (22.90 yr)  
   first obs. used      1998-01-25  
   last obs. used      2020-12-20  
   planetary ephem.      DE441  
   SB-pert. ephem.      SB441-N16  
   condition code      0  
   norm. resid. RMS      .65006  
   source      ORB  
   producer      Otto Matic  
   solution date      2021-Apr-13 21:05:16  

Additional Information
 Earth MOID = .873168 au 
 Jupiter MOID = 2.52171 au 
 T_jup = 3.589 
[ show covariance matrix ]

Ephemeris | Orbit Diagram | Orbital Elements | Mission Design | Physical Parameters | Discovery Circumstances | Close-Approach Data ]

Physical Parameter Table
Parameter Symbol Value Units Sigma Reference Notes
absolute magnitude H 17.46   n/a MPCxxxxx  

175406 (2006 OL14)          Discovered 2006-Jul-25 by NEAT at Palomar
Reference: 20080122/Numbers.arcLast Updated: 2008-01-28

[ hide close-approach data ]
Close-Approach Data   ...sorted by Date/Time (TDB)
Date/Time (TDB) Time Uncertainty
(days_HH:MM)
Body Nominal Distance (au) Minimum Distance (au) Maximum Distance (au) V-relative (km/s) V-infinity (km/s) JD (TDB) Time Uncertainty (minutes) Semi-major axis (km) Semi-minor axis (km) range-LOV angle (deg) N-sigma BP Orbit Ref. Reference Modified
2011-Dec-06 03:21 < 00:01 Hebe 0.0311562535094993 0.0311552806689121 0.0311572263505087 6.05205265054685 6.05205261757756 2455901.639435089 0.39502870375782 85.7721269383761 48.3396292074703 -86.8251909126135 96290.7736365139 T 16 CATAB v2.0f-lin.ifort 2021-Apr-13 21:05:16 2021-Apr-13 21:05
Ephemeris | Orbit Diagram | Orbital Elements | Mission Design | Physical Parameters | Discovery Circumstances | Close-Approach Data ]
ABOUT SSD CREDITS/AWARDS PRIVACY/COPYRIGHT GLOSSARY LINKS
FirstGov 2021-Jul-28 21:24 UT
(server date/time)  
NASA Home Page
Site Manager:   Ryan S. Park
Webmaster  Alan B. Chamberlin